Weather History for GMFM - May, 2013

Change the Weather History Date:

Tuesday, May 14, 2013

  Actual Average Record
Temperature  
Mean Temperature 66 °F -  
Max Temperature 73 °F - - ()
Min Temperature 59 °F - - ()
Cooling Degree Days 1    
Growing Degree Days 16 (Base 50)    
Moisture  
Dew Point 55 °F    
Average Humidity 68    
Maximum Humidity 88    
Minimum Humidity 47    
Precipitation  
Precipitation 0.00 in - - ()
Sea Level Pressure  
Sea Level Pressure 29.92 in    
Wind  
Wind Speed 5 mph ()    
Max Wind Speed 10 mph    
Max Gust Speed -    
Visibility 3.2 miles    
Events      
T = Trace of Precipitation, MM = Missing Value Source: Averaged Metar Reports

Daily Weather History Graph

Daily Weather History Graph

Search for Another Location

Airport or City:

Trip Planner

Search our weather history database for the weather conditions in past years. The results will help you decide how hot, cold, wet, or windy it might be!

Date:

Astronomy

May. 14, 2013 Rise Set
Actual Time 6:21 AM WEST 8:15 PM WEST
Civil Twilight 5:54 AM WEST 8:43 PM WEST
Nautical Twilight 5:20 AM WEST 9:16 PM WEST
Astronomical Twilight 4:45 AM WEST 9:52 PM WEST
Moon 9:48 AM WEST (5/14) 11:55 PM WEST (5/14)
Length of Visible Light 14h 49m
Length of Day
13h 54m
Waxing Crescent, 17% of the Moon is Illuminated
May 14
Waxing Crescent
May 18
First Quarter
May 25
Full
May 31
Last Quarter
Jun 8
New

Hourly Weather History & Observations

Time (WEST) Temp. Dew Point Humidity Pressure Visibility Wind Dir Wind Speed Gust Speed Precip Events Conditions
12:00 AM 71.6 °F 60.8 °F 69% 29.98 in - West 4.6 mph - N/A   Clear
1:00 AM 67 °F 58 °F 64% 29.90 in 6 mi South 4.6 mph - -   Clear
1:00 AM 64.4 °F 57.2 °F 77% 29.95 in - South 4.6 mph - N/A   Clear
2:00 AM 64.4 °F 57.2 °F 77% 29.95 in - South 4.6 mph - N/A   Clear
3:00 AM 64.4 °F 57.2 °F 77% 29.95 in - South 3.5 mph - N/A   Clear
4:00 AM 66 °F 50 °F 47% 29.86 in 6 mi South 5.8 mph - -   Clear
4:00 AM 66.2 °F 50.0 °F 56% 29.92 in - South 5.8 mph - N/A   Clear
5:00 AM 64.4 °F 51.8 °F 64% 29.92 in - WSW 1.2 mph - N/A   Clear
6:00 AM 62.6 °F 53.6 °F 72% 29.92 in - WSW 3.5 mph - N/A   Clear
7:00 AM 62 °F 52 °F 61% 29.90 in 6 mi WSW 3.5 mph - -   Partly Cloudy
7:00 AM 60.8 °F 51.8 °F 72% 29.95 in - WSW 3.5 mph - N/A   Clear
7:40 AM 59.0 °F 55.4 °F 88% 29.98 in 0.7 mi NW 4.6 mph - N/A   Scattered Clouds
8:00 AM 59.0 °F 55.4 °F 88% 29.95 in 0.7 mi West 3.5 mph - N/A   Overcast
9:00 AM 62.6 °F 55.4 °F 77% 29.98 in 0.7 mi West 4.6 mph - N/A   Overcast
10:00 AM 64 °F 55 °F 65% 29.92 in 1 mi West 6.9 mph - -   Mist
10:00 AM 64.4 °F 59.0 °F 83% 29.95 in 1.2 mi West 6.9 mph - N/A   Overcast
11:00 AM 66.2 °F 55.4 °F 68% 29.95 in 1.2 mi West 2.3 mph - N/A   Overcast
12:00 PM 68.0 °F 55.4 °F 64% 29.95 in 3.1 mi West 4.6 mph - N/A   Mostly Cloudy
1:00 PM 70 °F 55 °F 50% 29.87 in 3 mi WNW 4.6 mph - -   Scattered Clouds
1:00 PM 69.8 °F 55.4 °F 60% 29.95 in 3.1 mi WNW 4.6 mph - N/A   Mostly Cloudy
2:00 PM 71.6 °F 55.4 °F 57% 29.92 in 4.3 mi West 8.1 mph - N/A   Mostly Cloudy
3:00 PM 69.8 °F 55.4 °F 60% 29.92 in 4.3 mi WNW 10.4 mph - N/A   Mostly Cloudy
4:00 PM 70 °F 56 °F 52% 29.84 in 4 mi WNW 10.4 mph - -   Overcast
4:00 PM 69.8 °F 57.2 °F 64% 29.92 in 4.3 mi WNW 10.4 mph - N/A   Scattered Clouds
5:00 PM 69.8 °F 57.2 °F 64% 29.89 in 3.7 mi WNW 10.4 mph - N/A   Scattered Clouds
6:00 PM 69.8 °F 57.2 °F 64% 29.89 in 3.7 mi West 8.1 mph - N/A   Scattered Clouds
7:00 PM 67 °F 56 °F 59% 29.82 in 4 mi WNW 10.4 mph - -   Overcast
7:00 PM 68.0 °F 55.4 °F 64% 29.89 in 3.7 mi WNW 10.4 mph - N/A   Scattered Clouds
8:00 PM 64.4 °F 57.2 °F 77% 29.89 in 3.1 mi WNW 8.1 mph - N/A   Mostly Cloudy
9:00 PM 62.6 °F 55.4 °F 77% 29.89 in 3.1 mi WNW 10.4 mph - N/A   Mostly Cloudy
10:00 PM 61 °F 55 °F 75% 29.88 in 3 mi WNW 10.4 mph - -   Overcast
10:00 PM 60.8 °F 55.4 °F 82% 29.92 in 3.1 mi WNW 10.4 mph - N/A   Mostly Cloudy
11:00 PM 60.8 °F 55.4 °F 82% 29.92 in 3.1 mi West 8.1 mph - N/A   Mostly Cloudy